Simultaneous Nadir Overpasses (SNOs) Predictions

Prediction of SNOs between AQUA and METOP-A Satellite Orbit:

Table of predicted SNOs for the next 14.0 days since TLE Epoch: 6/16/2017
Index Date (AQUA) Time (AQUA) Lat,Lon (AQUA) SZA (AQUA ) Date (METOP-A) Time (METOP-A) Lat,Lon (METOP-A) SZA (METOP-A ) Distance(km) Time Diff (sec)
1 06/17/2017 12:19:09 73.89, -10.70 50.52 06/17/2017 12:18:04 73.86, -10.70 50.50 3.16 65
2 06/17/2017 13:08:35 -73.93, 156.85 129.44 06/17/2017 13:08:44 -73.93, 156.80 129.44 1.68 9
3 06/17/2017 13:58:08 74.20, -36.12 50.85 06/17/2017 13:59:19 74.18, -35.24 50.80 26.77 71
4 06/20/2017 07:53:23 73.91, 55.69 50.50 06/20/2017 07:52:24 73.90, 55.80 50.50 3.51 59
5 06/20/2017 08:42:49 -73.94,-136.73 129.47 06/20/2017 08:43:05 -73.92,-136.81 129.49 3.35 16
6 06/20/2017 09:32:26 74.47, 29.66 51.12 06/20/2017 09:33:33 74.46, 31.88 51.02 66.27 67
7 06/23/2017 03:27:35 73.88, 122.19 50.49 06/23/2017 03:26:44 73.88, 122.17 50.50 0.76 51
8 06/23/2017 04:17:02 -73.96, -70.33 129.43 06/23/2017 04:17:24 -73.96, -70.31 129.43 0.53 22
9 06/25/2017 23:01:49 73.92,-171.43 50.60 06/25/2017 23:01:04 73.91,-171.34 50.60 2.86 45
10 06/25/2017 23:51:15 -73.93, -3.83 129.39 06/25/2017 23:51:45 -73.95, -3.94 129.37 3.79 30
11 06/28/2017 18:36:02 73.90,-104.96 50.71 06/28/2017 18:35:25 73.90,-104.98 50.71 0.95 37
12 06/28/2017 19:25:29 -73.96, 62.55 129.23 06/28/2017 19:26:05 -73.98, 62.56 129.21 2.31 36




NCC Satellite Simultaneous Nadir Overpasses (SNOs) Prediction Service
